Home > Weather > Karaikudi > Past weeks

Flag for India Past Weather in Karaikudi, Tamil Nadu, India — Yesterday and Last 2 Weeks

Now
77 °F

Scattered clouds.


Feels Like: 78 °F
Forecast: 76 / 95 °F
Wind: 7 mph from Northwest

Location: Tiruchchirapalli

Current Time: Jul 30, 2016 at 7:30:04 AM

Latest Report: Jul 30, 2016 at 7:00 AM


Visibility: 4 mi

Pressure: 29.71 "Hg

Humidity: 83%

Dew Point: 72 °F

Location of KaraikudiLocation

Past Weather in Karaikudi — Graph

°F

Karaikudi Temperature Yesterday

Maximum temperature yesterday: 90 °F (at 3:30 PM)
Minimum temperature yesterday: 77 °F (at 3:30 AM)
Average temperature yesterday: 83 °F

High & Low Weather Summary for the Past Weeks

 TemperatureHumidityPressure
High100 °F (Jul 15, 2:30 PM)100% (Jul 17, 8:30 PM)29.86 "Hg (Jul 17, 8:30 PM)
Low73 °F (Jul 15, 10:00 PM)35% (Jul 15, 3:00 PM)29.59 "Hg (Jul 15, 4:00 PM)
Average85 °F67%29.72 "Hg
* Reported Jul 15 6:30 AM — Jul 30 6:30 AM, Karaikudi, Weather by CustomWeather, © 2016

Note: Actual official high and low records may vary slightly from our data, if they occured in-between our weather recording intervals... More about our weather records

Advertising

Karaikudi Weather History for the Previous 24 Hours

Scroll right to see more
 ConditionsComfort  
Time TempWeatherWind HumidityBarometerVisibility
6:30 AM
Sat, Jul 30
79 °FPassing clouds.6 mph79%29.71 "Hg4 mi
6:00 AM79 °FPassing clouds.6 mph79%29.71 "Hg4 mi
5:30 AM79 °FPassing clouds.5 mph79%29.71 "Hg4 mi
5:00 AM79 °FPassing clouds.5 mph79%29.68 "Hg4 mi
4:30 AM81 °FPassing clouds.5 mph74%29.68 "Hg4 mi
4:00 AM81 °FPassing clouds.5 mph74%29.68 "Hg4 mi
3:30 AM81 °FPassing clouds.5 mph74%29.68 "Hg4 mi
3:00 AM81 °FPassing clouds.5 mph74%29.71 "Hg4 mi
2:30 AM81 °FPassing clouds.5 mph74%29.71 "Hg4 mi
2:00 AM82 °FPassing clouds.5 mph84%29.71 "Hg4 mi
1:30 AM82 °FPassing clouds.5 mph84%29.71 "Hg4 mi
1:00 AM82 °FPassing clouds.5 mph84%29.71 "Hg4 mi
12:30 AM82 °FPassing clouds.5 mph84%29.71 "Hg4 mi
12:00 AM82 °FPassing clouds.5 mph84%29.74 "Hg4 mi
11:30 PM
Fri, Jul 29
82 °FPassing clouds.5 mph84%29.74 "Hg4 mi
11:00 PM84 °FPassing clouds.3 mph79%29.74 "Hg4 mi
10:30 PM84 °FPassing clouds.3 mph79%29.74 "Hg4 mi
10:00 PM84 °FPassing clouds.3 mph79%29.74 "Hg4 mi
9:30 PM84 °FPassing clouds.3 mph79%29.71 "Hg4 mi
9:00 PM84 °FPassing clouds.3 mph79%29.71 "Hg4 mi
8:30 PM84 °FPassing clouds.5 mph79%29.71 "Hg4 mi
8:00 PM86 °FPassing clouds.5 mph70%29.68 "Hg4 mi
7:30 PM86 °FPartly cloudy.3 mph70%29.68 "Hg4 mi
7:00 PM86 °FBroken clouds.3 mph70%29.68 "Hg4 mi
6:30 PM88 °FBroken clouds.2 mph66%29.65 "Hg4 mi
6:00 PM88 °FPartly sunny.3 mph66%29.65 "Hg4 mi
5:30 PM88 °FPartly sunny.5 mph66%29.65 "Hg4 mi
5:00 PM88 °FPartly sunny.6 mph62%29.65 "Hg5 mi
4:30 PM88 °FPartly sunny.8 mph62%29.65 "Hg5 mi
4:00 PM90 °FPartly sunny.7 mph63%29.65 "Hg5 mi
3:30 PM90 °FPartly sunny.7 mph63%29.65 "Hg5 mi
3:00 PM88 °FPartly sunny.7 mph66%29.68 "Hg5 mi
2:30 PM88 °FPartly sunny.9 mph66%29.68 "Hg5 mi
2:00 PM88 °FBroken clouds.9 mph62%29.71 "HgN/A
1:30 PM88 °FBroken clouds.12 mph62%29.71 "HgN/A
1:00 PM88 °FBroken clouds.12 mph62%29.74 "HgN/A
12:30 PM86 °FBroken clouds.9 mph66%29.74 "HgN/A
12:00 PM86 °FBroken clouds.12 mph70%29.74 "HgN/A
11:30 AM86 °FBroken clouds.12 mph70%29.74 "Hg5 mi
11:00 AM86 °FBroken clouds.9 mph62%29.74 "Hg5 mi
10:30 AM84 °FBroken clouds.9 mph70%29.77 "Hg5 mi
10:00 AM82 °FBroken clouds.9 mph74%29.77 "Hg4 mi
9:30 AM81 °FBroken clouds.9 mph79%29.77 "Hg4 mi
9:00 AM81 °FBroken clouds.9 mph79%29.74 "Hg3 mi
8:30 AM81 °FFog.8 mph79%29.74 "Hg2 mi
8:00 AM81 °FFog.9 mph79%29.74 "Hg2 mi
7:30 AM79 °FFog.8 mph84%29.74 "Hg2 mi
7:00 AM79 °FFog.7 mph84%29.71 "Hg2 mi
Weather by CustomWeather, © 2016

See weather overviewHow to use our weather pages